CW7549 Weather Reports


time (UTC)temp
C
wind
direction
speed
KPH
gust
KPH
rain 1hr
cm
rain 24hr
cm
rain mn
cm
humidity
%
barometer
mb
20260506011238 8 355 0.0 0.0 0.00 0.00 0.00 82 1010.1
20260506010239 9 355 0.0 1.6 0.00 0.00 0.00 82 1010.1
20260506005234 9 355 0.0 1.6 0.00 0.00 0.00 82 1010.1
20260506004252 9 355 0.0 1.6 0.00 0.00 0.00 82 1010.1
20260506003248 9 355 0.0 0.0 0.00 0.00 0.00 81 1010.2
20260506002241 9 355 0.0 3.2 0.00 0.00 0.00 81 1010.2
20260506001248 9 355 0.0 1.6 0.00 0.00 0.00 81 1010.2
20260506000240 9 355 0.0 3.2 0.00 0.00 0.00 81 1010.2
20260505235237 9 355 1.6 4.8 0.00 0.00 0.00 81 1010.2
20260505234249 9 345 0.0 4.8 0.00 0.00 0.00 80 1010.4
20260505233240 9 345 0.0 3.2 0.00 0.00 0.00 80 1010.4
20260505232251 9 345 1.6 4.8 0.00 0.00 0.00 80 1010.4
20260505231247 10 345 1.6 4.8 0.00 0.00 0.00 80 1010.5
20260505230236 10 344 1.6 4.8 0.00 0.00 0.00 79 1010.5
20260505225305 10 343 1.6 4.8 0.00 0.00 0.00 79 1010.5
20260505224243 10 342 3.2 6.4 0.00 0.00 0.00 79 1010.5
20260505223247 10 342 0.0 6.4 0.00 0.00 0.00 78 1010.6
20260505222243 10 341 3.2 6.4 0.00 0.00 0.00 78 1010.6
20260505221243 10 5 0.0 4.8 0.00 0.00 0.00 78 1010.6
20260505220246 10 5 3.2 8.0 0.00 0.00 0.00 78 1010.6
20260505215240 10 9 1.6 8.0 0.00 0.00 0.00 77 1010.6
20260505214239 10 5 1.6 6.4 0.00 0.00 0.00 77 1010.6
20260505213240 10 5 3.2 8.0 0.00 0.00 0.00 76 1010.6
20260505212236 10 355 0.0 9.7 0.00 0.00 0.00 76 1010.6
20260505211233 10 19 4.8 11.3 0.00 0.00 0.00 75 1010.6
20260505210238 11 10 3.2 9.7 0.00 0.00 0.00 75 1010.6
20260505205237 11 346 4.8 9.7 0.00 0.00 0.00 74 1010.6
20260505204240 11 15 1.6 11.3 0.00 0.00 0.00 73 1010.6
20260505203234 11 339 3.2 11.3 0.00 0.00 0.00 72 1010.5
20260505202241 11 342 3.2 12.9 0.00 0.00 0.00 71 1010.5
20260505201237 11 351 4.8 14.5 0.00 0.00 0.00 70 1010.4
20260505200245 11 24 6.4 11.3 0.00 0.00 0.00 69 1010.2
20260505195259 12 355 4.8 8.0 0.00 0.00 0.00 68 1010.2
20260505194250 12 350 1.6 17.7 0.00 0.00 0.00 66 1010.1
20260505193238 12 336 6.4 16.1 0.00 0.00 0.00 65 1010.0
20260505192231 12 340 3.2 11.3 0.00 0.00 0.00 64 1010.0
20260505191307 12 338 3.2 11.3 0.00 0.00 0.00 64 1009.9
20260505190243 12 22 8.0 19.3 0.00 0.00 0.00 63 1009.7
20260505185234 13 333 9.7 14.5 0.00 0.00 0.00 63 1009.7
20260505184245 13 325 3.2 19.3 0.00 0.00 0.00 62 1009.8
20260505183238 13 15 8.0 19.3 0.00 0.00 0.00 63 1009.6
20260505182252 14 42 3.2 16.1 0.00 0.00 0.00 63 1009.6
20260505181243 14 355 1.6 4.8 0.00 0.00 0.00 63 1009.6
20260505180234 15 16 4.8 14.5 0.00 0.00 0.00 62 1009.5
20260505175235 15 347 3.2 16.1 0.00 0.00 0.00 61 1009.5
20260505174236 15 331 4.8 9.7 0.00 0.00 0.00 62 1009.5
20260505173248 15 340 3.2 16.1 0.00 0.00 0.00 60 1009.5
20260505172305 15 12 4.8 11.3 0.00 0.00 0.00 60 1009.5
20260505171243 15 360 6.4 12.9 0.00 0.00 0.00 59 1009.5
20260505170257 16 341 6.4 11.3 0.00 0.00 0.00 58 1009.6
20260505165235 16 360 4.8 9.7 0.00 0.00 0.00 58 1009.6
20260505164311 16 309 0.0 6.4 0.00 0.00 0.00 60 1009.6
20260505163242 16 11 0.0 6.4 0.00 0.00 0.00 59 1009.7
20260505162233 17 355 3.2 8.0 0.00 0.00 0.00 58 1009.7
20260505161244 16 27 4.8 11.3 0.00 0.00 0.00 57 1009.6
20260505160236 16 355 1.6 6.4 0.00 0.00 0.00 61 1009.7
20260505153253 16 336 1.6 6.4 0.00 0.00 0.00 60 1009.9
20260505152240 16 360 0.0 6.4 0.00 0.00 0.00 61 1009.9
20260505151236 16 9 1.6 11.3 0.00 0.00 0.00 60 1010.1
20260505150250 16 17 4.8 9.7 0.00 0.00 0.00 61 1010.1
20260505140243 15 24 0.0 3.2 0.00 0.00 0.00 71 1010.5
20260505130246 15 17 4.8 9.7 0.00 0.00 0.00 69 1010.6
20260505124236 16 323 3.2 9.7 0.00 0.00 0.00 70 1010.6
20260505123244 16 25 4.8 8.0 0.00 0.00 0.00 69 1010.6
20260505122238 16 33 4.8 8.0 0.00 0.00 0.00 70 1010.6
20260505121239 16 355 3.2 11.3 0.00 0.00 0.00 70 1010.6
20260505120306 15 28 1.6 9.7 0.00 0.00 0.00 71 1010.6
20260505115249 15 30 0.0 3.2 0.00 0.00 0.00 72 1010.6
20260505114246 15 30 0.0 1.6 0.00 0.00 0.00 71 1010.7
20260505113238 15 29 0.0 6.4 0.00 0.00 0.00 71 1010.8
20260505112248 15 31 6.4 8.0 0.00 0.00 0.00 70 1010.8
20260505111242 16 11 4.8 6.4 0.00 0.00 0.00 69 1010.8
20260505110256 16 12 6.4 11.3 0.00 0.00 0.00 70 1010.8
20260505101242 14 313 3.2 8.0 0.00 0.00 0.00 73 1010.9
20260505100237 14 51 4.8 11.3 0.00 0.00 0.00 72 1010.9
20260505095241 15 57 1.6 9.7 0.00 0.00 0.00 72 1010.9
20260505094235 15 56 4.8 9.7 0.00 0.00 0.00 71 1010.9
20260505093251 15 59 8.0 14.5 0.00 0.00 0.00 71 1010.8
20260505092246 15 42 3.2 14.5 0.00 0.00 0.00 73 1010.8
20260505091238 15 55 8.0 17.7 0.00 0.00 0.00 73 1010.8
20260505090304 15 68 9.7 16.1 0.00 0.00 0.00 74 1010.8
20260505085300 14 52 3.2 11.3 0.00 0.00 0.00 76 1010.8
20260505084235 13 43 1.6 12.9 0.00 0.00 0.00 78 1010.8
20260505083245 13 52 6.4 9.7 0.00 0.00 0.00 79 1010.7
20260505082233 12 52 3.2 11.3 0.00 0.00 0.00 80 1010.6
20260505081305 12 52 6.4 8.0 0.00 0.00 0.00 81 1010.7
20260505080303 12 52 4.8 11.3 0.00 0.00 0.00 81 1010.6
20260505075246 12 52 4.8 9.7 0.00 0.00 0.00 81 1010.6
20260505074258 12 65 8.0 14.5 0.00 0.00 0.00 82 1010.6
20260505073237 11 106 4.8 9.7 0.00 0.00 0.00 85 1010.6
20260505072234 11 112 4.8 8.0 0.00 0.00 0.00 86 1010.6
20260505071243 11 112 3.2 8.0 0.00 0.00 0.00 87 1010.7
20260505070251 11 181 3.2 4.8 0.00 0.00 0.00 88 1010.7
20260505065248 11 182 1.6 3.2 0.00 0.00 0.00 89 1010.7
20260505064244 10 182 0.0 3.2 0.00 0.00 0.00 89 1010.6
20260505063242 10 182 1.6 4.8 0.00 0.00 0.00 90 1010.6
20260505062234 10 182 0.0 0.0 0.00 0.00 0.00 89 1010.6
20260505061245 10 182 0.0 0.0 0.00 0.00 0.00 89 1010.6
20260505060233 9 182 0.0 0.0 0.00 0.00 0.00 88 1010.6
20260505055312 9 182 0.0 0.0 0.00 0.00 0.00 88 1010.6
20260505054250 9 182 0.0 0.0 0.00 0.00 0.00 88 1010.6
20260505053242 9 182 0.0 0.0 0.00 0.00 0.00 88 1010.5
20260505052234 9 182 0.0 0.0 0.00 0.00 0.00 88 1010.5
20260505051243 9 182 1.6 6.4 0.00 0.00 0.00 87 1010.4
20260505050235 9 182 0.0 1.6 0.00 0.00 0.00 87 1010.5
20260505041234 10 182 1.6 4.8 0.00 0.00 0.00 88 1010.3
20260505040248 10 182 0.0 1.6 0.00 0.00 0.00 88 1010.2
20260505035309 10 182 0.0 6.4 0.00 0.00 0.00 88 1010.2
20260505034247 10 187 0.0 4.8 0.00 0.00 0.00 88 1010.3
20260505033237 10 187 3.2 6.4 0.00 0.00 0.00 88 1010.2
20260505032254 10 187 3.2 6.4 0.00 0.00 0.00 88 1010.2
20260505031306 10 190 3.2 6.4 0.00 0.00 0.00 88 1010.3
20260505030242 10 210 1.6 4.8 0.00 0.00 0.00 87 1010.3
20260505025249 10 210 1.6 4.8 0.00 0.00 0.00 87 1010.3
20260505024246 10 210 1.6 4.8 0.00 0.00 0.00 88 1010.4
20260505023241 10 210 1.6 4.8 0.00 0.00 0.00 88 1010.5
20260505022235 11 210 0.0 4.8 0.00 0.00 0.00 87 1010.5
20260505021237 11 210 3.2 6.4 0.00 0.00 0.00 87 1010.5
20260505020236 11 210 1.6 4.8 0.00 0.00 0.00 87 1010.6
20260505015247 11 211 1.6 3.2 0.00 0.00 0.00 88 1010.6
20260505014245 11 211 0.0 4.8 0.00 0.00 0.00 88 1010.6
20260505013306 11 211 1.6 4.8 0.00 0.00 0.00 88 1010.8
20260505012241 11 211 1.6 6.4 0.00 0.00 0.00 88 1010.8